When you browse on this site, cookies collect data to enhance your experience and personalize the content and advertising you see.
Visit our Privacy Policy to learn more. By continuing to use the site, you agree to this use of cookies and data.

Météo par heure à Andorre-la-Vieille

Ce jour, 29 Septembre, Mardi

Heure Température Précipitation Vent Pression Humidité
00:00 +6°C° 0 mm 1 m/s 624 mmHg 81%
01:00 +6°C° 0 mm 1 m/s 624 mmHg 80%
02:00 +6°C° 0 mm 1 m/s 624 mmHg 79%
03:00 +6°C° 0 mm 1 m/s 624 mmHg 78%
04:00 +6°C° 0 mm 1 m/s 624 mmHg 75%
05:00 +6°C° 0 mm 1 m/s 624 mmHg 71%
06:00 +6°C° 0 mm 1 m/s 624 mmHg 68%
07:00 +8°C° 0 mm 1 m/s 625 mmHg 64%
08:00 +10°C° 0 mm 0 m/s 626 mmHg 60%
09:00 +12°C° 0 mm 0 m/s 628 mmHg 56%
10:00 +15°C° 0 mm 1 m/s 628 mmHg 53%
11:00 +16°C° 0 mm 1 m/s 628 mmHg 50%
12:00 +18°C° 0 mm 1 m/s 629 mmHg 47%
13:00 +18°C° 0 mm 1 m/s 628 mmHg 49%
14:00 +16°C° 0 mm 1 m/s 627 mmHg 51%
15:00 +16°C° 0 mm 1 m/s 627 mmHg 53%
16:00 +14°C° 0 mm 1 m/s 626 mmHg 62%
17:00 +12°C° 0 mm 1 m/s 625 mmHg 71%
18:00 +9°C° 0 mm 1 m/s 624 mmHg 79%
19:00 +9°C° 0 mm 1 m/s 624 mmHg 79%
20:00 +8°C° 0 mm 1 m/s 624 mmHg 79%
21:00 +8°C° 0 mm 1 m/s 624 mmHg 79%
22:00 +8°C° 0 mm 1 m/s 624 mmHg 78%
23:00 +8°C° 0 mm 1 m/s 624 mmHg 77%

Demain, 30 Septembre, Mercredi

Heure Température Précipitation Vent Pression Humidité
00:00 +7°C° 0 mm 1 m/s 624 mmHg 75%
01:00 +7°C° 0 mm 1 m/s 623 mmHg 73%
02:00 +7°C° 0 mm 1 m/s 623 mmHg 71%
03:00 +7°C° 0 mm 1 m/s 623 mmHg 69%
04:00 +7°C° 0 mm 1 m/s 622 mmHg 69%
05:00 +7°C° 0 mm 1 m/s 622 mmHg 69%
06:00 +7°C° 0 mm 1 m/s 622 mmHg 69%
07:00 +10°C° 0 mm 1 m/s 624 mmHg 63%
08:00 +13°C° 0 mm 1 m/s 625 mmHg 56%
09:00 +15°C° 0 mm 1 m/s 626 mmHg 50%
10:00 +16°C° 0 mm 1 m/s 626 mmHg 47%
11:00 +18°C° 0 mm 1 m/s 626 mmHg 43%
12:00 +18°C° 0 mm 2 m/s 626 mmHg 39%
13:00 +18°C° 0 mm 2 m/s 625 mmHg 40%
14:00 +18°C° 0 mm 2 m/s 625 mmHg 41%
15:00 +17°C° 0 mm 2 m/s 625 mmHg 42%
16:00 +15°C° 0 mm 1 m/s 623 mmHg 52%
17:00 +12°C° 0 mm 1 m/s 622 mmHg 62%
18:00 +8°C° 0 mm 0 m/s 621 mmHg 72%
19:00 +8°C° 0 mm 0 m/s 621 mmHg 71%
20:00 +9°C° 0 mm 1 m/s 621 mmHg 69%
21:00 +8°C° 0 mm 1 m/s 621 mmHg 68%
22:00 +8°C° 0 mm 1 m/s 621 mmHg 68%
23:00 +8°C° 0 mm 1 m/s 620 mmHg 67%

Après-demain, 1 Octobre, Jeudi

Heure Température Précipitation Vent Pression Humidité
00:00 +8°C° 0 mm 1 m/s 620 mmHg 67%
01:00 +8°C° 0 mm 1 m/s 620 mmHg 66%
02:00 +8°C° 0 mm 1 m/s 619 mmHg 65%
03:00 +8°C° 0 mm 1 m/s 619 mmHg 63%
04:00 +8°C° 0 mm 1 m/s 619 mmHg 64%
05:00 +8°C° 0 mm 1 m/s 618 mmHg 65%
06:00 +8°C° 0 mm 1 m/s 618 mmHg 65%
07:00 +9°C° 0 mm 1 m/s 619 mmHg 64%
08:00 +11°C° 0 mm 1 m/s 620 mmHg 63%
09:00 +12°C° 0 mm 1 m/s 620 mmHg 62%
10:00 +12°C° 0.2 mm 1 m/s 620 mmHg 66%
11:00 +11°C° 0.2 mm 1 m/s 620 mmHg 70%
12:00 +10°C° 0.2 mm 2 m/s 620 mmHg 74%
13:00 +10°C° 0.1 mm 2 m/s 620 mmHg 74%
14:00 +10°C° 0.1 mm 2 m/s 619 mmHg 74%
15:00 +10°C° 0.1 mm 2 m/s 619 mmHg 73%
16:00 +9°C° 0.1 mm 2 m/s 618 mmHg 78%
17:00 +9°C° 0.1 mm 1 m/s 618 mmHg 82%
18:00 +8°C° 0.1 mm 1 m/s 617 mmHg 86%
19:00 +8°C° 0 mm 1 m/s 617 mmHg 86%
20:00 +7°C° 0 mm 1 m/s 617 mmHg 87%
21:00 +6°C° 0 mm 2 m/s 616 mmHg 87%
22:00 +6°C° 0 mm 2 m/s 615 mmHg 86%
23:00 +5°C° 0 mm 3 m/s 614 mmHg 85%

2 Octobre, Vendredi

Heure Température Précipitation Vent Pression Humidité
00:00 +5°C° 0 mm 3 m/s 613 mmHg 85%
01:00 +5°C° 0 mm 3 m/s 612 mmHg 87%
02:00 +5°C° 0 mm 3 m/s 611 mmHg 90%
03:00 +5°C° 0 mm 3 m/s 611 mmHg 93%
04:00 +5°C° 0.3 mm 3 m/s 610 mmHg 94%
05:00 +5°C° 0.3 mm 3 m/s 609 mmHg 95%
06:00 +5°C° 0.3 mm 3 m/s 609 mmHg 96%
07:00 +5°C° 2 mm 3 m/s 608 mmHg 96%
08:00 +5°C° 2 mm 3 m/s 608 mmHg 96%
09:00 +5°C° 2 mm 3 m/s 608 mmHg 96%
10:00 +5°C° 1.7 mm 3 m/s 608 mmHg 96%
11:00 +4°C° 1.7 mm 3 m/s 608 mmHg 96%
12:00 +5°C° 1.7 mm 2 m/s 608 mmHg 96%
13:00 +4°C° 1.8 mm 2 m/s 607 mmHg 96%
14:00 +3°C° 1.8 mm 2 m/s 607 mmHg 95%
15:00 +3°C° 1.8 mm 1 m/s 607 mmHg 94%
16:00 +3°C° 0.6 mm 1 m/s 607 mmHg 94%
17:00 +2°C° 0.6 mm 1 m/s 607 mmHg 95%
18:00 +1°C° 0.6 mm 1 m/s 607 mmHg 96%
19:00 -1°C° 0.1 mm 2 m/s 607 mmHg 95%
20:00 -2°C° 0.1 mm 2 m/s 607 mmHg 95%
21:00 -2°C° 0.1 mm 2 m/s 607 mmHg 94%
22:00 -2°C° 0 mm 3 m/s 607 mmHg 94%
23:00 -2°C° 0 mm 3 m/s 606 mmHg 93%

3 Octobre, Samedi

Heure Température Précipitation Vent Pression Humidité
00:00 -1°C° 0 mm 3 m/s 606 mmHg 92%
01:00 -2°C° 0.1 mm 3 m/s 606 mmHg 93%
02:00 -2°C° 0.1 mm 3 m/s 605 mmHg 93%
03:00 -2°C° 0.1 mm 3 m/s 605 mmHg 94%
04:00 -2°C° 0.4 mm 3 m/s 605 mmHg 94%
05:00 -1°C° 0.4 mm 3 m/s 606 mmHg 95%
06:00 -1°C° 0.4 mm 3 m/s 606 mmHg 95%
07:00 0°C° 0.5 mm 3 m/s 607 mmHg 94%
08:00 +1°C° 0.5 mm 3 m/s 607 mmHg 94%
09:00 +3°C° 0.5 mm 2 m/s 608 mmHg 93%
10:00 +2°C° 0.1 mm 3 m/s 608 mmHg 91%
11:00 +3°C° 0.1 mm 3 m/s 609 mmHg 89%
12:00 +3°C° 0.1 mm 3 m/s 609 mmHg 86%
13:00 +3°C° 1 mm 3 m/s 608 mmHg 90%
14:00 +1°C° 1 mm 4 m/s 608 mmHg 93%
15:00 0°C° 1 mm 4 m/s 607 mmHg 96%
16:00 +1°C° 1.1 mm 3 m/s 608 mmHg 97%
17:00 +1°C° 1.1 mm 3 m/s 608 mmHg 97%
18:00 +2°C° 1.1 mm 2 m/s 609 mmHg 98%
19:00 +2°C° 0.1 mm 2 m/s 610 mmHg 97%
20:00 +1°C° 0.1 mm 2 m/s 610 mmHg 96%
21:00 +1°C° 0.1 mm 2 m/s 611 mmHg 95%
22:00 -1°C° 0.1 mm 2 m/s 611 mmHg 94%
23:00 +1°C° 0.1 mm 1 m/s 612 mmHg 93%

4 Octobre, Dimanche

Heure Température Précipitation Vent Pression Humidité
00:00 +1°C° 0.1 mm 1 m/s 612 mmHg 93%
01:00 +1°C° 0.3 mm 1 m/s 613 mmHg 94%
02:00 +2°C° 0.3 mm 1 m/s 613 mmHg 95%
03:00 +3°C° 0.3 mm 1 m/s 614 mmHg 96%
04:00 +3°C° 0 mm 1 m/s 614 mmHg 95%
05:00 +3°C° 0 mm 1 m/s 615 mmHg 95%
06:00 +3°C° 0 mm 1 m/s 615 mmHg 95%
07:00 +4°C° 0 mm 1 m/s 616 mmHg 93%
08:00 +5°C° 0 mm 1 m/s 616 mmHg 90%
09:00 +7°C° 0 mm 1 m/s 617 mmHg 88%
10:00 +7°C° 0 mm 1 m/s 617 mmHg 85%
11:00 +7°C° 0 mm 2 m/s 617 mmHg 82%
12:00 +8°C° 0 mm 2 m/s 618 mmHg 79%
13:00 +7°C° 0.2 mm 2 m/s 617 mmHg 81%
14:00 +7°C° 0.2 mm 2 m/s 617 mmHg 83%
15:00 +6°C° 0.2 mm 2 m/s 617 mmHg 85%
16:00 +5°C° 0.3 mm 2 m/s 617 mmHg 88%
17:00 +5°C° 0.3 mm 1 m/s 616 mmHg 91%
18:00 +4°C° 0.3 mm 1 m/s 616 mmHg 94%
19:00 +4°C° 0.3 mm 1 m/s 617 mmHg 94%
20:00 +2°C° 0.3 mm 2 m/s 617 mmHg 94%
21:00 +2°C° 0.3 mm 2 m/s 617 mmHg 95%
22:00 +1°C° 0.3 mm 2 m/s 617 mmHg 95%
23:00 +1°C° 0.3 mm 2 m/s 617 mmHg 95%
Voir plus